SB KEPS @ AMSAT $ORB11076.O Orbital Elements 11076.OSCAR
HR AMSAT ORBITAL ELEMENTS FOR OSCAR SATELLITES FROM WA5QGD FORT WORTH,TX March 17, 2011 Send Subscribe/unsubscribe to KEPS at http://www.amsat.org/mailman/listinfo/keps BID: ORB11076.O TO ALL RADIO AMATEURS BT
Satellite: AO-07 Catalog number: 07530 Epoch time: 11075.58113605 Element set: 0031 Inclination: 101.3958 deg RA of node: 085.7740 deg Eccentricity: 0.0012088 Arg of perigee: 100.9648 deg Mean anomaly: 259.2784 deg Mean motion: 12.53581500 rev/day Decay rate: -2.7e-07 rev/day^2 Epoch rev: 66258 Checksum: 289
Satellite: FO-29 Catalog number: 24278 Epoch time: 11076.87422025 Element set: 526 Inclination: 098.5316 deg RA of node: 233.3681 deg Eccentricity: 0.0351160 Arg of perigee: 133.8676 deg Mean anomaly: 229.2049 deg Mean motion: 13.52958328 rev/day Decay rate: 2.2e-07 rev/day^2 Epoch rev: 72011 Checksum: 300
Satellite: SO-33 Catalog number: 25509 Epoch time: 11075.28128155 Element set: 0927 Inclination: 031.4323 deg RA of node: 049.7665 deg Eccentricity: 0.0353651 Arg of perigee: 149.1844 deg Mean anomaly: 213.0054 deg Mean motion: 14.28376098 rev/day Decay rate: 2.78e-06 rev/day^2 Epoch rev: 64698 Checksum: 321
Satellite: RS-22 Catalog number: 27939 Epoch time: 11076.61068718 Element set: 82 Inclination: 097.8589 deg RA of node: 294.9279 deg Eccentricity: 0.0012539 Arg of perigee: 277.1413 deg Mean anomaly: 082.8353 deg Mean motion: 14.63528497 rev/day Decay rate: 2.12e-06 rev/day^2 Epoch rev: 39894 Checksum: 355
Satellite: VO-52 Catalog number: 28650 Epoch time: 11075.86706574 Element set: 0745 Inclination: 097.6544 deg RA of node: 123.0847 deg Eccentricity: 0.0028207 Arg of perigee: 103.6798 deg Mean anomaly: 256.7512 deg Mean motion: 14.81944252 rev/day Decay rate: 2.81e-06 rev/day^2 Epoch rev: 31707 Checksum: 321
Satellite: SO-67 Catalog number: 35870 Epoch time: 11076.83862192 Element set: 655 Inclination: 097.2937 deg RA of node: 123.1669 deg Eccentricity: 0.0002088 Arg of perigee: 185.5058 deg Mean anomaly: 290.1563 deg Mean motion: 15.21457594 rev/day Decay rate: 2.213e-05 rev/day^2 Epoch rev: 8305 Checksum: 323
Satellite: HO-68 Catalog number: 36122 Epoch time: 11076.72517019 Element set: 202 Inclination: 100.4268 deg RA of node: 138.8870 deg Eccentricity: 0.0008095 Arg of perigee: 074.4036 deg Mean anomaly: 285.7972 deg Mean motion: 13.16284740 rev/day Decay rate: -4.4e-07 rev/day^2 Epoch rev: 6020 Checksum: 285
/EX SB KEPS @ AMSAT $ORB11076.D Orbital Elements 11076.MICROS
HR AMSAT ORBITAL ELEMENTS FOR THE MICROSATS FROM WA5QGD FORT WORTH,TX March 17, 2011 Send Subscribe/unsubscribe to KEPS at http://www.amsat.org/mailman/listinfo/keps BID: ORB11076.D TO ALL RADIO AMATEURS BT
Satellite: UO-11 Catalog number: 14781 Epoch time: 11076.86430711 Element set: 497 Inclination: 098.0157 deg RA of node: 133.8166 deg Eccentricity: 0.0010200 Arg of perigee: 075.7465 deg Mean anomaly: 284.4871 deg Mean motion: 14.79909928 rev/day Decay rate: 3.49e-06 rev/day^2 Epoch rev: 45228 Checksum: 322
Satellite: AO-16 Catalog number: 20439 Epoch time: 11076.83286125 Element set: 142 Inclination: 098.3731 deg RA of node: 029.5522 deg Eccentricity: 0.0011923 Arg of perigee: 074.3947 deg Mean anomaly: 285.8555 deg Mean motion: 14.31901889 rev/day Decay rate: 1.14e-06 rev/day^2 Epoch rev: 10454 Checksum: 300
Satellite: LO-19 Catalog number: 20442 Epoch time: 11075.87872685 Element set: 0061 Inclination: 098.3360 deg RA of node: 033.3432 deg Eccentricity: 0.0012841 Arg of perigee: 072.4029 deg Mean anomaly: 287.8558 deg Mean motion: 14.32128772 rev/day Decay rate: 2.4e-07 rev/day^2 Epoch rev: 10458 Checksum: 296
Satellite: AO-27 Catalog number: 22825 Epoch time: 11075.88738111 Element set: 771 Inclination: 098.5221 deg RA of node: 022.2864 deg Eccentricity: 0.0008257 Arg of perigee: 181.4428 deg Mean anomaly: 178.6728 deg Mean motion: 14.29332250 rev/day Decay rate: 1.68e-06 rev/day^2 Epoch rev: 91100 Checksum: 301
Satellite: IO-26 Catalog number: 22826 Epoch time: 11076.88354674 Element set: 512 Inclination: 098.5160 deg RA of node: 023.7662 deg Eccentricity: 0.0008810 Arg of perigee: 172.9766 deg Mean anomaly: 187.1541 deg Mean motion: 14.29592423 rev/day Decay rate: 1.14e-06 rev/day^2 Epoch rev: 91126 Checksum: 309
Satellite: GO-32 Catalog number: 25397 Epoch time: 11075.81376805 Element set: 430 Inclination: 098.3228 deg RA of node: 073.3362 deg Eccentricity: 0.0001444 Arg of perigee: 144.0447 deg Mean anomaly: 216.0832 deg Mean motion: 14.23199584 rev/day Decay rate: 8.6e-07 rev/day^2 Epoch rev: 65882 Checksum: 305
Satellite: NO-44 Catalog number: 26931 Epoch time: 11076.53618721 Element set: 704 Inclination: 067.0516 deg RA of node: 219.6807 deg Eccentricity: 0.0007087 Arg of perigee: 269.8886 deg Mean anomaly: 090.1372 deg Mean motion: 14.29641311 rev/day Decay rate: 1.82e-06 rev/day^2 Epoch rev: 49382 Checksum: 316
Satellite: SO-50 Catalog number: 27607 Epoch time: 11075.58351555 Element set: 0417 Inclination: 064.5575 deg RA of node: 249.0516 deg Eccentricity: 0.0062469 Arg of perigee: 342.5459 deg Mean anomaly: 017.3488 deg Mean motion: 14.71667306 rev/day Decay rate: 3.12e-06 rev/day^2 Epoch rev: 44246 Checksum: 316
Satellite: CO-55 Catalog number: 27844 Epoch time: 11076.55707121 Element set: 67 Inclination: 098.7083 deg RA of node: 086.5854 deg Eccentricity: 0.0010514 Arg of perigee: 100.8633 deg Mean anomaly: 259.3740 deg Mean motion: 14.20779314 rev/day Decay rate: 2.04e-06 rev/day^2 Epoch rev: 39990 Checksum: 308
Satellite: CO-57 Catalog number: 27848 Epoch time: 11076.55680751 Element set: 15 Inclination: 098.7140 deg RA of node: 085.7439 deg Eccentricity: 0.0010395 Arg of perigee: 104.7770 deg Mean anomaly: 255.4565 deg Mean motion: 14.20562899 rev/day Decay rate: 1.67e-06 rev/day^2 Epoch rev: 39985 Checksum: 344
Satellite: AO-51 Catalog number: 28375 Epoch time: 11076.64661291 Element set: 921 Inclination: 098.0888 deg RA of node: 059.9482 deg Eccentricity: 0.0084609 Arg of perigee: 348.4171 deg Mean anomaly: 011.5075 deg Mean motion: 14.40732639 rev/day Decay rate: 1.12e-06 rev/day^2 Epoch rev: 35288 Checksum: 324
Satellite: CP3 Catalog number: 31129 Epoch time: 11075.69925485 Element set: 0823 Inclination: 097.9097 deg RA of node: 105.2265 deg Eccentricity: 0.0103427 Arg of perigee: 108.1693 deg Mean anomaly: 253.0758 deg Mean motion: 14.52398283 rev/day Decay rate: 3.09e-06 rev/day^2 Epoch rev: 20741 Checksum: 311
Satellite: CO-65 Catalog number: 32785 Epoch time: 11075.64353004 Element set: 0940 Inclination: 097.8588 deg RA of node: 141.2726 deg Eccentricity: 0.0015987 Arg of perigee: 115.8204 deg Mean anomaly: 244.4621 deg Mean motion: 14.81867121 rev/day Decay rate: 6.63e-06 rev/day^2 Epoch rev: 15583 Checksum: 316
Satellite: KKS-1 Catalog number: 33493 Epoch time: 11076.78377588 Element set: 403 Inclination: 098.1114 deg RA of node: 204.1504 deg Eccentricity: 0.0019448 Arg of perigee: 339.7244 deg Mean anomaly: 020.3181 deg Mean motion: 14.81410621 rev/day Decay rate: 1.990e-05 rev/day^2 Epoch rev: 11598 Checksum: 291
Satellite: SOHLA-1 Catalog number: 33496 Epoch time: 11076.88226741 Element set: 360 Inclination: 098.0713 deg RA of node: 187.6881 deg Eccentricity: 0.0007513 Arg of perigee: 059.0752 deg Mean anomaly: 301.1186 deg Mean motion: 14.69570702 rev/day Decay rate: 1.93e-06 rev/day^2 Epoch rev: 11507 Checksum: 297
Satellite: TISAT-1 Catalog number: 36799 Epoch time: 11076.89520938 Element set: 678 Inclination: 098.1112 deg RA of node: 144.2162 deg Eccentricity: 0.0014793 Arg of perigee: 208.5100 deg Mean anomaly: 151.5190 deg Mean motion: 14.80370567 rev/day Decay rate: 9.24e-06 rev/day^2 Epoch rev: 3680 Checksum: 302
Satellite: STUDSAT Catalog number: 36801 Epoch time: 11075.81871030 Element set: 0167 Inclination: 098.1148 deg RA of node: 142.9757 deg Eccentricity: 0.0013608 Arg of perigee: 200.6459 deg Mean anomaly: 159.4203 deg Mean motion: 14.80142020 rev/day Decay rate: 3.278e-05 rev/day^2 Epoch rev: 03663 Checksum: 276
Satellite: RAX Catalog number: 37223 Epoch time: 11076.46296103 Element set: 0111 Inclination: 071.9712 deg RA of node: 241.1662 deg Eccentricity: 0.0019162 Arg of perigee: 097.1868 deg Mean anomaly: 263.1474 deg Mean motion: 14.77281669 rev/day Decay rate: 1.193e-05 rev/day^2 Epoch rev: 01734 Checksum: 288
Satellite: OOREOS Catalog number: 37224 Epoch time: 11076.42207246 Element set: 1095 Inclination: 071.9712 deg RA of node: 241.3960 deg Eccentricity: 0.0017800 Arg of perigee: 096.5373 deg Mean anomaly: 263.7815 deg Mean motion: 14.76929834 rev/day Decay rate: 8.68e-06 rev/day^2 Epoch rev: 01732 Checksum: 305
Satellite: NANOSALD Catalog number: 37225 Epoch time: 11073.19059273 Element set: 0082 Inclination: 071.9764 deg RA of node: 248.2839 deg Eccentricity: 0.0026789 Arg of perigee: 057.9293 deg Mean anomaly: 302.4366 deg Mean motion: 14.81737623 rev/day Decay rate: 1.09841e-03 rev/day^2 Epoch rev: 00796 Checksum: 331
Satellite: FAST1-2 Catalog number: 37227 Epoch time: 11076.46150311 Element set: 0104 Inclination: 071.9707 deg RA of node: 241.5035 deg Eccentricity: 0.0015604 Arg of perigee: 091.4474 deg Mean anomaly: 268.8479 deg Mean motion: 14.76407590 rev/day Decay rate: 3.09e-06 rev/day^2 Epoch rev: 01732 Checksum: 283
/EX SB KEPS @ AMSAT $ORB11076.W Orbital Elements 11076.WEATHER
HR AMSAT ORBITAL ELEMENTS FOR WEATHER SATELLITES FROM WA5QGD FORT WORTH,TX March 17, 2011 Send Subscribe/unsubscribe to KEPS at http://www.amsat.org/mailman/listinfo/keps BID: ORB11076.W TO ALL RADIO AMATEURS BT
Satellite: NOAA-10 Catalog number: 16969 Epoch time: 11075.96548552 Element set: 0436 Inclination: 098.6293 deg RA of node: 106.9675 deg Eccentricity: 0.0012885 Arg of perigee: 132.3167 deg Mean anomaly: 227.9108 deg Mean motion: 14.27448165 rev/day Decay rate: 5.4e-07 rev/day^2 Epoch rev: 27449 Checksum: 338
